Regional Weather Roundup
Issued by NWS Charleston, WV

Home | Current Version | Previous Version | Graphics & Text | Print | Product List | Glossary On
Versions: 1 2 3 4 5 6 7 8 9 10 11 12 13 14 15 16 17 18 19 20 21 22 23 24 25 26 27
000
ASUS41 KRLX 040910
RWRRLX
West Virginia Regional Weather Roundup
National Weather Service Charleston WV
500 AM EDT WED MAY 04 2016

Note: "fair" indicates few or no clouds below 12,000 feet with no
significant weather and/or obstructions to visibility.

WVZ003-041000-
Northern Panhandle of West Virginia

CITY           SKY/WX    TMP DP  RH WIND       PRES   REMARKS
WHEELING       CLOUDY    49  46  90 S5        29.73F
$$

WVZ009-041000-
Northwest West Virginia

CITY           SKY/WX    TMP DP  RH WIND       PRES   REMARKS
PARKERSBURG      N/A    N/A N/A N/A MISG        N/A
$$

WVZ006-041000-
Western West Virginia

CITY           SKY/WX    TMP DP  RH WIND       PRES   REMARKS
HUNTINGTON     CLOUDY    53  51  93 CALM      29.77F
$$

WVZ015-041000-
West Central West Virginia

CITY           SKY/WX    TMP DP  RH WIND       PRES   REMARKS
CHARLESTON     CLOUDY    53  50  89 SW5       29.76S
$$

WVZ022-031-041000-
North Central West Virginia

CITY           SKY/WX    TMP DP  RH WIND       PRES   REMARKS
CLARKSBURG     LGT RAIN  51  50  96 W3        29.74F FOG
MORGANTOWN     CLOUDY    52  47  83 CALM      29.74F
$$

WVZ025-035-042-045-041000-
Southern West Virginia

CITY           SKY/WX    TMP DP  RH WIND       PRES   REMARKS
BECKLEY        CLOUDY    48  46  93 SW5       29.77F
LOGAN          NOT AVBL
BLUEFIELD      MOCLDY    46  44  93 W3        29.78F
LEWISBURG        N/A     44  43  97 CALM      29.76F
$$

WVZ047-041000-
Northern Mountains of West Virginia

CITY           SKY/WX    TMP DP  RH WIND       PRES   REMARKS
ELKINS         LGT RAIN  47  45  93 CALM      29.76S
$$

WVZ052-041000-
Eastern Panhandle of West Virginia

CITY           SKY/WX    TMP DP  RH WIND       PRES   REMARKS
MARTINSBURG    FOG       55  54  96 CALM      29.72S VSB 1/4
PETERSBURG     FOG       49  49  99 CALM      29.76S VSB 1/2
$$




USA.gov is the U.S. government's official web portal to all federal, state and local government web resources and services.